Weather History for FBSK - November, 2011

Change the Weather History Date:

Friday, November 4, 2011

  Actual Average Record
Temperature  
Mean Temperature 74 °F -  
Max Temperature 93 °F 85 °F 104 °F (2005)
Min Temperature 56 °F 62 °F 51 °F (2000)
Cooling Degree Days 10    
Growing Degree Days 24 (Base 50)    
Moisture  
Dew Point 49 °F    
Average Humidity 45    
Maximum Humidity 78    
Minimum Humidity 20    
Precipitation  
Precipitation 0.00 in - - ()
Sea Level Pressure  
Sea Level Pressure 29.91 in    
Wind  
Wind Speed 9 mph ()    
Max Wind Speed 22 mph    
Max Gust Speed 23 mph    
Visibility 6.2 miles    
Events Thunderstorm    
Averages and records for this station are not official NWS values.
T = Trace of Precipitation, MM = Missing Value Source: Averaged Metar Reports

Daily Weather History Graph

Daily Weather History Graph

Search for Another Location

Airport or City:

Trip Planner

Search our weather history database for the weather conditions in past years. The results will help you decide how hot, cold, wet, or windy it might be!

Date:

Astronomy

Nov. 04, 2011 Rise Set
Actual Time 5:27 AM CAT 6:32 PM CAT
Civil Twilight 5:03 AM CAT 6:56 PM CAT
Nautical Twilight 4:35 AM CAT 7:25 PM CAT
Astronomical Twilight 4:06 AM CAT 7:54 PM CAT
Moon 1:21 PM CAT (11/4) 1:26 AM CAT (11/4)
Length of Visible Light 13h 53m
Length of Day
13h 05m
Waxing Gibbous, 67% of the Moon is Illuminated
Nov 4
Waxing Gibbous
Nov 10
Full
Nov 18
Last Quarter
Nov 25
New
Dec 2
First Quarter

Hourly Weather History & Observations

Time (CAT) Temp. Dew Point Humidity Pressure Visibility Wind Dir Wind Speed Gust Speed Precip Events Conditions
1:00 AM 66.2 °F 46.4 °F 49% 29.95 in - ENE 9.2 mph - N/A   Clear
2:00 AM 64.4 °F 48.2 °F 56% 29.92 in - ENE 10.4 mph - N/A   Clear
3:00 AM 62.6 °F 48.2 °F 59% 29.92 in - ENE 4.6 mph - N/A   Clear
4:00 AM 60.8 °F 48.2 °F 63% 29.92 in - East 4.6 mph - N/A   Clear
5:00 AM 59.0 °F 48.2 °F 67% 29.95 in - SE 5.8 mph - N/A   Clear
6:00 AM 59.0 °F 48.2 °F 67% 29.95 in - SE 6.9 mph - N/A   Clear
7:00 AM 66.2 °F 48.2 °F 52% 29.95 in - East 6.9 mph - N/A   Clear
8:00 AM 71 °F 47 °F 31%  in 6 mi NE 9.2 mph - -   Scattered Clouds
8:00 AM 71.6 °F 46.4 °F 41% 29.98 in - NE 9.2 mph - N/A   Clear
9:00 AM 78.8 °F 48.2 °F 34% 29.98 in - North 11.5 mph - N/A   Clear
10:00 AM 84.2 °F 51.8 °F 33% 29.95 in - NNW 11.5 mph 23.0 mph N/A   Clear
11:00 AM 87.8 °F 50.0 °F 27% 29.89 in 6.2 mi NNW 15.0 mph - N/A   Partly Cloudy
12:00 PM 89.6 °F 50.0 °F 26% 29.86 in 6.2 mi NNW 16.1 mph - N/A   Partly Cloudy
1:00 PM 93.2 °F 46.4 °F 20% 29.83 in 6.2 mi NW 16.1 mph - N/A   Partly Cloudy
2:00 PM 56 °F 46 °F 59%  in 6 mi NW 17.3 mph - -   Partly Cloudy
2:00 PM 91.4 °F 46.4 °F 21% 29.80 in 6.2 mi NW 17.3 mph - N/A   Partly Cloudy
4:00 PM 91.4 °F 44.6 °F 20% 29.74 in 6.2 mi WNW 11.5 mph - N/A   Scattered Clouds
5:00 PM 84.2 °F 46.4 °F 27% 29.80 in 6.2 mi NW 13.8 mph - N/A Thunderstorm Thunderstorm
6:00 PM 69.8 °F 62.6 °F 78% 29.86 in 6.2 mi North 4.6 mph - N/A   Partly Cloudy
7:00 PM 71.6 °F 62.6 °F 73% 29.86 in 6.2 mi North 4.6 mph - N/A   Partly Cloudy
8:00 PM 71.6 °F 64.4 °F 78% 29.92 in 6.2 mi South 4.6 mph - N/A   Partly Cloudy
9:00 PM 75.2 °F 50.0 °F 41% 29.98 in 6.2 mi SSW 9.2 mph 20.7 mph N/A   Partly Cloudy
10:00 PM 75.2 °F 39.2 °F 27% 30.01 in 6.2 mi SW 21.9 mph - N/A   Partly Cloudy
11:00 PM 73.4 °F 41.0 °F 31% 30.04 in 6.2 mi SW 21.9 mph - N/A   Mostly Cloudy